Waarnemingen

Advertentie
Mijn weer
Aultbea, Groot Brittannië (3034): temperatuur & dauwpunt: 13.06.2018 01:00:00 - 19.06.2018 01:00:00 (BST)Aultbea, Groot Brittannië (3034): temperatuur -20cm & temperatuur -100cm: 13.06.2018 01:00:00 - 19.06.2018 01:00:00 (BST)Aultbea, Groot Brittannië (3034): windsnelheid & windstoten: 13.06.2018 01:00:00 - 19.06.2018 01:00:00 (BST)Aultbea, Groot Brittannië (3034): windrichting: 13.06.2018 01:00:00 - 19.06.2018 01:00:00 (BST)Aultbea, Groot Brittannië (3034): luchtdruk: 13.06.2018 01:00:00 - 19.06.2018 01:00:00 (BST)Aultbea, Groot Brittannië (3034): zicht: 13.06.2018 01:00:00 - 19.06.2018 01:00:00 (BST)Aultbea, Groot Brittannië (3034): neerslag: 13.06.2018 01:00:00 - 19.06.2018 01:00:00 (BST)
Datum & Tijd tt [°C] td [°C] tt -20cm [°C] tt -100cm [°C] ff [km/u] ff [kn] fx [km/u] fx [kn] dd ppp [hPa] vv [km] rr [mm]
19.06.2018 01:00:00 - - - - - - - - - - - -
19.06.2018 00:00:00 8,9 7,0 - - 37 20 67 36 WZW 1009,7 4,2 1,8
18.06.2018 23:00:00 10,0 7,1 - - 39 21 57 31 WZW 1009,1 15 0,4
18.06.2018 22:00:00 10,3 6,8 - - 39 21 57 31 WZW 1008,6 15 0,0
18.06.2018 21:00:00 9,9 6,6 - - 31 17 57 31 ZW 1008,0 23 0,6
18.06.2018 20:00:00 11,2 6,8 - - 39 21 61 33 ZW 1007,7 21 0,0
18.06.2018 19:00:00 11,3 6,3 - - 37 20 61 33 ZW 1007,5 19 0,0
18.06.2018 18:00:00 12,4 7,2 - - 37 20 67 36 WZW 1007,0 22 0,0
18.06.2018 17:00:00 11,5 6,9 - - 41 22 61 33 ZW 1006,9 21 0,0
18.06.2018 16:00:00 11,8 9,1 - - 35 19 57 31 ZW 1007,0 28 2,8
18.06.2018 15:00:00 11,8 7,1 - - 37 20 61 33 ZW 1006,8 16 0,0
18.06.2018 14:00:00 11,9 6,9 - - 44 24 61 33 ZW 1006,8 23 0,0
18.06.2018 13:00:00 12,8 7,4 - - 46 25 65 35 ZW 1006,1 11 0,0
18.06.2018 12:00:00 12,6 6,7 - - 37 20 54 29 ZZW 1006,6 21 0,0
18.06.2018 11:00:00 11,8 7,8 - - 31 17 55 30 ZW 1006,9 29 0,2
18.06.2018 10:00:00 11,6 6,9 14,7 13,7 46 25 57 31 ZW 1006,4 27 0,0
18.06.2018 09:00:00 11,4 7,0 - - 31 17 59 32 ZW 1006,1 18 0,0
18.06.2018 08:00:00 11,3 6,6 - - 29 16 52 28 ZW 1006,1 22 0,0
18.06.2018 07:00:00 10,9 7,1 - - 26 14 54 29 ZW 1006,0 17 0,0
18.06.2018 06:00:00 11,0 6,8 - - 29 16 54 29 ZW 1005,9 19 0,0
18.06.2018 05:00:00 10,7 7,3 - - 26 14 48 26 ZW 1005,6 15 0,0
18.06.2018 04:00:00 11,0 7,8 - - 35 19 48 26 ZW 1005,3 14 0,0
18.06.2018 03:00:00 11,1 8,5 - - 28 15 46 25 ZZW 1005,3 8 0,0
18.06.2018 02:00:00 11,2 8,8 - - 24 13 - - Z 1005,3 24 0,0
18.06.2018 01:00:00 11,3 9,8 - - 21 11 - - ZZW 1005,1 27 0,0
18.06.2018 00:00:00 11,2 10,3 - - 18 10 - - ZW 1004,7 29 0,4
17.06.2018 23:00:00 12,0 11,1 - - 31 17 46 25 ZW 1004,0 2,8 0,2
17.06.2018 22:00:00 12,1 11,3 - - 31 17 46 25 ZW 1003,8 11 0,0
17.06.2018 21:00:00 12,4 11,3 - - 28 15 52 28 Z 1003,4 8 0,0
17.06.2018 20:00:00 12,9 10,9 - - 39 21 54 29 Z 1003,4 14 0,0
17.06.2018 19:00:00 13,5 9,9 - - 18 10 - - Z 1003,2 40 0,0
17.06.2018 18:00:00 13,2 9,6 - - 22 12 - - Z 1003,9 35 0,0
17.06.2018 17:00:00 12,9 10,1 - - 22 12 - - ZZW 1004,8 40 0,0
17.06.2018 16:00:00 13,7 9,4 - - 21 11 - - ZZW 1005,4 18 0,0
17.06.2018 15:00:00 14,9 9,1 - - 26 14 - - Z 1005,5 30 0,0
17.06.2018 14:00:00 14,2 9,8 - - 24 13 - - Z 1006,2 30 0,0
17.06.2018 13:00:00 12,4 9,7 - - 26 14 - - ZZW 1006,8 15 0,0
17.06.2018 12:00:00 12,8 9,7 - - 24 13 - - Z 1006,6 28 0,0
17.06.2018 11:00:00 12,3 9,2 - - 22 12 - - Z 1006,8 45 0,0
17.06.2018 10:00:00 12,8 8,9 14,7 13,7 22 12 - - Z 1006,6 50 0,0
17.06.2018 09:00:00 11,7 8,1 - - 21 11 - - Z 1006,8 45 0,0
17.06.2018 08:00:00 11,4 7,5 - - 15 8 - - Z 1006,5 40 0,0
17.06.2018 07:00:00 10,5 8,5 - - 9 5 - - ZZO 1006,7 45 0,0
17.06.2018 06:00:00 9,1 8,2 - - 5 3 - - O 1006,8 30 0,0
17.06.2018 05:00:00 8,1 7,1 - - 8 4 - - ZZO 1006,9 27 0,0
17.06.2018 04:00:00 9,2 7,9 - - 9 5 - - ZZW 1007,2 30 0,0
17.06.2018 03:00:00 9,5 8,0 - - 11 6 - - ZZO 1007,4 29 0,0
17.06.2018 02:00:00 10,5 8,8 - - 15 8 - - ZZW 1007,3 23 0,0
17.06.2018 01:00:00 10,8 8,7 - - 11 6 - - ZZW 1007,2 27 0,0
17.06.2018 00:00:00 11,0 8,7 - - 11 6 - - ZZW 1007,3 29 0,0
16.06.2018 23:00:00 10,4 8,9 - - 13 7 - - Z 1006,5 29 0,0
16.06.2018 22:00:00 10,9 9,7 - - 13 7 - - Z 1006,7 28 0,0
16.06.2018 21:00:00 11,5 10,0 - - 8 4 - - Z 1006,6 13 0,0
16.06.2018 20:00:00 12,1 9,4 - - 8 4 - - WZW 1005,9 30 0,0
16.06.2018 19:00:00 12,6 10,4 - - 9 5 - - WZW 1005,4 40 0,2
16.06.2018 18:00:00 11,7 10,8 - - 8 4 - - ZZW 1005,5 17 2,4
16.06.2018 17:00:00 12,0 9,4 - - 11 6 - - ZW 1005,3 11 0,6
16.06.2018 16:00:00 12,7 8,8 - - 9 5 - - WNW 1004,8 35 0,0
16.06.2018 15:00:00 15,4 9,8 - - 5 3 - - Z 1004,5 50 0,0
16.06.2018 14:00:00 14,1 10,4 - - 13 7 - - ZO 1004,6 45 0,0
16.06.2018 13:00:00 13,5 10,7 - - 15 8 - - ONO 1005,0 40 0,2
16.06.2018 12:00:00 12,2 10,1 - - 8 4 - - O 1005,4 24 0,4
16.06.2018 11:00:00 12,0 9,9 - - 8 4 - - O 1005,6 15 0,8
16.06.2018 10:00:00 11,8 8,8 15,0 13,9 15 8 - - ZO 1005,7 10 0,6
16.06.2018 09:00:00 11,7 8,5 - - 5 3 - - Z 1005,9 19 0,2
16.06.2018 08:00:00 11,8 8,1 - - 2 1 - - Z 1005,9 45 0,0
16.06.2018 07:00:00 11,2 7,7 - - 5 3 - - OZO 1006,1 50 0,0
16.06.2018 06:00:00 10,0 7,8 - - 8 4 - - O 1006,5 45 0,0
16.06.2018 05:00:00 7,6 5,6 - - 5 3 - - O 1006,9 50 0,0
16.06.2018 04:00:00 8,1 5,6 - - 8 4 - - O 1007,5 50 0,0
16.06.2018 03:00:00 10,3 7,5 - - 9 5 - - ZZO 1008,1 50 0,0
16.06.2018 02:00:00 10,2 7,6 - - 8 4 - - ZO 1008,7 40 0,0
16.06.2018 01:00:00 10,0 7,4 - - 9 5 - - Z 1009,1 45 0,0
16.06.2018 00:00:00 10,6 8,2 - - 18 10 - - Z 1009,4 35 0,0
15.06.2018 23:00:00 10,3 8,6 - - 16 9 - - Z 1009,5 19 0,0
15.06.2018 22:00:00 11,1 8,4 - - 21 11 - - ZZW 1009,5 30 0,0
15.06.2018 21:00:00 11,7 8,0 - - 22 12 - - ZZW 1009,3 45 0,0
15.06.2018 20:00:00 12,5 8,0 - - 24 13 - - ZZW 1009,0 40 0,0
15.06.2018 19:00:00 12,8 8,9 - - 24 13 - - ZZW 1008,9 30 0,2
15.06.2018 18:00:00 11,4 9,4 - - 13 7 - - ZW 1008,9 35 1,0
15.06.2018 17:00:00 14,0 8,0 - - 21 11 - - WZW 1008,9 45 0,0
15.06.2018 16:00:00 13,4 8,6 - - 24 13 - - ZW 1009,1 30 0,0
15.06.2018 15:00:00 12,4 9,0 - - 21 11 46 25 ZW 1008,9 45 0,8
15.06.2018 14:00:00 13,2 8,2 - - 21 11 - - WZW 1008,4 35 0,0
15.06.2018 13:00:00 12,0 8,5 - - 24 13 - - ZZW 1008,3 23 2,0
15.06.2018 12:00:00 12,7 7,9 - - 29 16 - - ZW 1007,8 22 0,0
15.06.2018 11:00:00 13,2 8,5 - - 29 16 - - ZW 1007,6 40 0,0
15.06.2018 10:00:00 11,8 8,2 14,9 14,0 26 14 - - ZW 1007,3 29 0,0
15.06.2018 09:00:00 11,3 8,5 - - 26 14 - - ZW 1006,9 25 0,0
15.06.2018 08:00:00 11,2 8,3 - - 28 15 - - ZW 1006,5 19 0,0
15.06.2018 07:00:00 10,8 8,7 - - 24 13 - - ZW 1005,9 11 0,0
15.06.2018 06:00:00 10,8 8,4 - - 22 12 - - ZW 1005,5 27 0,0
15.06.2018 05:00:00 10,5 8,4 - - 24 13 - - ZW 1004,9 29 0,0
15.06.2018 04:00:00 10,4 8,3 - - 26 14 - - ZZW 1005,2 28 0,0
15.06.2018 03:00:00 10,1 8,2 - - 21 11 - - ZZW 1004,8 45 0,0
15.06.2018 02:00:00 10,3 8,0 - - 18 10 - - ZZW 1004,9 24 0,0
15.06.2018 01:00:00 10,3 7,7 - - 24 13 - - ZW 1004,7 26 0,0
15.06.2018 00:00:00 9,5 7,4 - - 21 11 46 25 ZW 1004,6 25 0,0
14.06.2018 23:00:00 10,1 7,9 - - 29 16 50 27 ZW 1004,4 7 0,2
14.06.2018 22:00:00 10,1 7,6 - - 35 19 54 29 WZW 1003,9 18 0,0
14.06.2018 21:00:00 10,5 7,6 - - 35 19 57 31 WZW 1003,3 20 0,0
14.06.2018 20:00:00 11,3 7,6 - - 37 20 63 34 WZW 1002,8 24 0,0
14.06.2018 19:00:00 11,6 6,8 - - 34 18 63 34 WZW 1001,9 17 0,0
14.06.2018 18:00:00 10,8 8,9 - - 31 17 65 35 W 1000,8 11 0,4
14.06.2018 17:00:00 11,2 8,2 - - 37 20 70 38 WZW 999,6 15 0,6
14.06.2018 16:00:00 12,3 7,6 - - 41 22 74 40 WZW 998,4 19 0,0
14.06.2018 15:00:00 12,0 7,9 - - 42 23 74 40 WZW 997,0 15 0,0
14.06.2018 14:00:00 12,0 6,8 - - 50 27 72 39 W 995,4 14 0,0
14.06.2018 13:00:00 11,6 7,1 - - 44 24 70 38 W 994,1 13 0,0
14.06.2018 12:00:00 10,7 7,8 - - 42 23 57 31 W 991,7 9 0,2
14.06.2018 11:00:00 11,2 8,7 - - 44 24 70 38 W 988,3 11 0,0
14.06.2018 10:00:00 11,4 9,8 15,4 14,2 35 19 57 31 W 984,2 17 0,2
14.06.2018 09:00:00 12,7 11,3 - - 35 19 72 39 ZZW 980,1 22 0,0
14.06.2018 08:00:00 12,5 11,3 - - 50 27 74 40 ZZW 978,9 13 0,4
14.06.2018 07:00:00 12,9 10,7 - - 52 28 72 39 ZZW 979,6 7 0,0
14.06.2018 06:00:00 12,8 10,5 - - 57 31 80 43 ZZW 980,4 12 0,6
14.06.2018 05:00:00 14,0 11,2 - - 55 30 80 43 ZZW 981,3 10 0,2
14.06.2018 04:00:00 13,9 12,3 - - 52 28 81 44 ZZW 982,5 19 0,6
14.06.2018 03:00:00 14,5 13,1 - - 50 27 76 41 ZZW 983,3 8 0,2
14.06.2018 02:00:00 14,4 13,3 - - 50 27 80 43 Z 985,3 4,7 0,4
14.06.2018 01:00:00 14,5 13,0 - - 52 28 89 48 Z 986,7 6 0,6
14.06.2018 00:00:00 14,8 12,4 - - 46 25 70 38 Z 988,3 5 0,2
13.06.2018 23:00:00 13,2 11,7 - - 21 11 - - ZZO 990,5 8 2,0
13.06.2018 22:00:00 12,9 11,5 - - 21 11 - - ZZO 993,2 16 2,6
13.06.2018 21:00:00 12,9 11,4 - - 21 11 - - ZZO 995,5 10 2,6
13.06.2018 20:00:00 13,2 11,3 - - 24 13 - - Z 998,0 11 1,0
13.06.2018 19:00:00 13,0 11,1 - - 26 14 46 25 Z 999,7 15 1,0
13.06.2018 18:00:00 12,9 11,0 - - 37 20 55 30 Z 1001,3 11 1,0
13.06.2018 17:00:00 13,0 11,1 - - 31 17 48 26 Z 1002,8 15 0,6
13.06.2018 16:00:00 12,7 10,8 - - 29 16 50 27 Z 1004,2 15 0,6
13.06.2018 15:00:00 12,5 10,2 - - 29 16 - - Z 1005,5 18 0,6
13.06.2018 14:00:00 11,6 9,8 - - 24 13 - - Z 1007,0 10 1,2
13.06.2018 13:00:00 11,3 9,2 - - 21 11 - - Z 1008,5 13 0,8
13.06.2018 12:00:00 11,6 8,7 - - 18 10 - - Z 1009,4 13 0,0
13.06.2018 11:00:00 12,2 6,4 - - 29 16 - - Z 1010,7 20 0,0
13.06.2018 10:00:00 12,7 6,1 16,0 14,2 18 10 - - Z 1011,3 45 0,0
13.06.2018 09:00:00 11,2 6,0 - - 21 11 - - Z 1012,8 45 0,0
13.06.2018 08:00:00 11,2 7,4 - - 11 6 - - ZZW 1013,6 45 0,0
13.06.2018 07:00:00 9,8 7,1 - - 9 5 - - Z 1014,1 45 0,0
13.06.2018 06:00:00 8,2 7,4 - - 8 4 - - ZO 1014,7 45 0,0
13.06.2018 05:00:00 5,7 4,8 - - 4 2 - - O 1015,6 30 0,0
13.06.2018 04:00:00 5,5 4,6 - - 5 3 - - O 1016,3 28 0,0
13.06.2018 03:00:00 6,0 5,0 - - 4 2 - - O 1017,3 35 0,0
13.06.2018 02:00:00 6,7 5,5 - - 5 3 - - O 1018,0 30 0,0
13.06.2018 01:00:00 6,0 4,6 - - 4 2 - - O 1018,8 40 0,0

tt = temperatuur
td = dauwpunt
tt -20cm = temperatuur -20cm
tt -100cm = temperatuur -100cm
ff = windsnelheid
fx = windstoten
dd = windrichting
ppp = luchtdruk
vv = zicht
rr = neerslag

Weerstations in de omgeving